Regional Weather Roundup
Issued by NWS

Home | Current Version | Previous Version | Text Only | Print | Product List | Glossary On
Versions: 1 2 3 4 5 6 7 8 9 10 11 12 13 14 15 16 17 18 19 20 21 22 23 24 25 26 27 28 29 30 31 32 33 34 35 36 37 38 39 40 41 42 43 44 45 46 47 48 49 50
000
ASUS46 KSEW 290210
RWRWA

WASHINGTON REGIONAL WEATHER ROUNDUP
NATIONAL WEATHER SERVICE SEATTLE WA
700 PM PDT SUN MAY 28 2017

NOTE:"FAIR" INDICATES FEW OR NO CLOUDS BELOW 12,000 FEET WITH NO
SIGNIFICANT WEATHER AND/OR OBSTRUCTIONS TO VISIBILITY.

WAZ507-509-555>559-290300-
SEATTLE, TACOMA, EVERETT, AND VICINITY

CITY           SKY/WX    TMP DP  RH WIND       PRES   REMARKS
EVERETT        SUNNY     76  54  46 NW7       30.03F
BOEING FIELD   SUNNY     80  53  39 VRB6      29.99F
RENTON         SUNNY     82  53  36 NW12      29.98F
SEATAC AIRPORT MOSUNNY   83  48  29 N9        30.00F
JBLM-MCCHORD   SUNNY     82  53  36 NE5       30.00F
PUYALLUP         N/A     82  52  34 VRB3      30.01F
BREMERTON      SUNNY     79  48  33 NE12      30.01F
JBLM-FT LEWIS  SUNNY     84  42  22 NE8       30.02F
TACOMA NARROWS SUNNY     79  46  31 N8        30.00F
$$

WAZ001-503-506-510-514-515-290300-
NORTH INTERIOR

CITY           SKY/WX    TMP DP  RH WIND       PRES   REMARKS
BELLINGHAM     SUNNY     82  54  37 CALM      30.01F
FRIDAY HARBOR  SUNNY     63  53  70 CALM      30.04F
EASTSOUND      SUNNY     73  55  53 S5        30.02F
PORT ANGELES   SUNNY     56  50  80 NW8       30.06F
EDIZ HOOK      FOG       50  48  93 W17       30.06S VSB 3/4
PORT TOWNSEND  FAIR      68  54  60 SW6       30.04S
NAS WHIDBEY    MOSUNNY   56  48  74 W8        30.08F
ARLINGTON      SUNNY     77  54  44 NW12      30.02S
BURLINGTON     SUNNY     73  57  56 CALM      30.02S
$$

WAZ020-022-039-040-504-511-512-290300-
SOUTHWEST INTERIOR

CITY           SKY/WX    TMP DP  RH WIND       PRES   REMARKS
SHELTON        SUNNY     70  55  59 SW17      30.01R
OLYMPIA        SUNNY     81  58  45 N10       30.00S
CHEHALIS       FAIR      77  59  53 NW9       30.01S
KELSO          SUNNY     66  54  65 NW13      30.04S
VANCOUVER      SUNNY     83  59  44 NW8       29.96F
SCAPPOOSE, OR  SUNNY     78  59  51 N9        29.96F
PORTLAND, OR   SUNNY     83  56  39 W9        29.97S
$$

WAZ021-516-517-290300-
WASHINGTON COAST

CITY           SKY/WX    TMP DP  RH WIND       PRES   REMARKS
FORKS          PTSUNNY   53  50  89 W7        30.09F
HOQUIAM        CLOUDY    54  52  93 W10       30.11F
ASTORIA, OR    CLOUDY    54  49  83 W7        30.11F
$$

WAZ019-023-024-040-567>569-290300-
CASCADE MOUNTAINS AND COLUMBIA GORGE

CITY           SKY/WX    TMP DP  RH WIND       PRES   REMARKS
STAMPEDE PASS  SUNNY     71  45  39 NW7       30.16F
TROUTDALE, OR  SUNNY     82  59  45 SW6       29.96F
THE DALLES, OR SUNNY     93  46  19 NE7       29.91F
$$

WAZ026-027-041>044-520-521-290300-
EAST SLOPES

CITY           SKY/WX    TMP DP  RH WIND       PRES   REMARKS
OMAK           SUNNY     83  46  27 SW6       30.02F
WENATCHEE      SUNNY     85  44  23 E6        30.00F
ELLENSBURG     SUNNY     87  42  20 E6        30.02F
YAKIMA         SUNNY     90  44  20 SE5       29.99F
SUNNYSIDE ARPT CLEAR     84  52  32 CALM      29.98S
$$

WAZ028-034-035-290300-
COLUMBIA BASIN

CITY           SKY/WX    TMP DP  RH WIND       PRES   REMARKS
EPHRATA        SUNNY     88  38  17 N8        30.01F
MOSES LAKE     SUNNY     88  41  19 SE5       30.01F
PASCO          SUNNY     90  44  20 N6        29.96F
HERMISTON, OR  SUNNY     90  44  20 N7        29.96F
$$

WAZ036>038-290300-
NORTHEAST WASHINGTON

CITY           SKY/WX    TMP DP  RH WIND       PRES   REMARKS
SPOKANE GEIGER MOSUNNY   82  38  20 SW5       30.08F
SPOKANE FELTS  SUNNY     85  45  24 CALM      30.05F
FAIRCHILD AFB  SUNNY     80  48  32 W3        30.08F
COEURDALENE,ID SUNNY     82  47  29 W5        30.07F
DEER PARK      SUNNY     82  38  20 CALM      30.07F
$$

WAZ029>033-290300-
SOUTHEAST WASHINGTON

CITY           SKY/WX    TMP DP  RH WIND       PRES   REMARKS
PULLMAN        SUNNY     76  53  44 NW5       30.10F
LEWISTON, ID   SUNNY     87  43  21 W3        30.01F
WALLA WALLA    SUNNY     87  39  18 CALM      30.00F
PENDLETON, OR  SUNNY     81  58  45 N6        30.01F
$$



USA.gov is the U.S. government's official web portal to all federal, state and local government web resources and services.